When you browse on this site, cookies collect data to enhance your experience and personalize the content and advertising you see.
Visit our Privacy Policy to learn more. By continuing to use the site, you agree to this use of cookies and data.
  • In Switzerland
  • List of Countries
  • For 7 days
  • Water Temperature
  • Satellite Maps
  • Weather Map
  • Weather Widgets
  • user-avatar
    Login

    Hourly Weather Canillo

    Today, 27 June, Thursday

    Time Temperature Precipitation Wind Pressure Humidity
    00:00 +19°C° 0 mm 2 mps 625 mmHg 32%
    01:00 +18°C° 0 mm 2 mps 625 mmHg 30%
    02:00 +18°C° 0 mm 2 mps 625 mmHg 29%
    03:00 +18°C° 0 mm 2 mps 624 mmHg 27%
    04:00 +19°C° 0 mm 2 mps 625 mmHg 30%
    05:00 +20°C° 0 mm 2 mps 625 mmHg 34%
    06:00 +20°C° 0 mm 2 mps 626 mmHg 37%
    07:00 +24°C° 0 mm 1 mps 627 mmHg 32%
    08:00 +27°C° 0 mm 1 mps 628 mmHg 27%
    09:00 +29°C° 0 mm 1 mps 629 mmHg 22%
    10:00 +30°C° 0 mm 1 mps 629 mmHg 20%
    11:00 +31°C° 0 mm 2 mps 629 mmHg 18%
    12:00 +32°C° 0 mm 2 mps 629 mmHg 16%
    13:00 +32°C° 0 mm 2 mps 629 mmHg 17%
    14:00 +32°C° 0 mm 2 mps 628 mmHg 17%
    15:00 +31°C° 0 mm 2 mps 628 mmHg 18%
    16:00 +30°C° 0 mm 2 mps 627 mmHg 27%
    17:00 +28°C° 0 mm 1 mps 627 mmHg 35%
    18:00 +27°C° 0 mm 1 mps 626 mmHg 44%
    19:00 +25°C° 0 mm 1 mps 625 mmHg 44%
    20:00 +22°C° 0 mm 1 mps 625 mmHg 44%
    21:00 +20°C° 0 mm 1 mps 624 mmHg 43%
    22:00 +19°C° 0 mm 2 mps 624 mmHg 41%
    23:00 +19°C° 0 mm 2 mps 623 mmHg 39%

    Tomorrow, 28 June, Friday

    Time Temperature Precipitation Wind Pressure Humidity
    00:00 +19°C° 0 mm 2 mps 623 mmHg 37%
    01:00 +19°C° 0 mm 2 mps 623 mmHg 36%
    02:00 +18°C° 0 mm 2 mps 623 mmHg 36%
    03:00 +18°C° 0 mm 2 mps 623 mmHg 35%
    04:00 +19°C° 0 mm 2 mps 623 mmHg 38%
    05:00 +19°C° 0 mm 2 mps 623 mmHg 41%
    06:00 +20°C° 0 mm 2 mps 623 mmHg 44%
    07:00 +24°C° 0 mm 1 mps 624 mmHg 37%
    08:00 +26°C° 0 mm 1 mps 625 mmHg 30%
    09:00 +29°C° 0 mm 1 mps 626 mmHg 23%
    10:00 +30°C° 0 mm 1 mps 626 mmHg 22%
    11:00 +30°C° 0 mm 2 mps 626 mmHg 22%
    12:00 +31°C° 0 mm 2 mps 626 mmHg 21%
    13:00 +31°C° 0 mm 2 mps 626 mmHg 23%
    14:00 +30°C° 0 mm 2 mps 626 mmHg 24%
    15:00 +30°C° 0 mm 2 mps 625 mmHg 26%
    16:00 +29°C° 0 mm 2 mps 624 mmHg 35%
    17:00 +27°C° 0 mm 2 mps 624 mmHg 43%
    18:00 +26°C° 0 mm 1 mps 623 mmHg 52%
    19:00 +24°C° 0 mm 1 mps 623 mmHg 50%
    20:00 +22°C° 0 mm 1 mps 622 mmHg 48%
    21:00 +21°C° 0 mm 1 mps 622 mmHg 47%
    22:00 +21°C° 0 mm 1 mps 622 mmHg 44%
    23:00 +20°C° 0 mm 1 mps 622 mmHg 42%

    Day after tomorrow, 29 June, Saturday

    Time Temperature Precipitation Wind Pressure Humidity
    00:00 +20°C° 0 mm 1 mps 622 mmHg 40%
    01:00 +20°C° 0 mm 1 mps 621 mmHg 39%
    02:00 +20°C° 0 mm 1 mps 621 mmHg 39%
    03:00 +19°C° 0 mm 1 mps 621 mmHg 38%
    04:00 +20°C° 0 mm 1 mps 621 mmHg 41%
    05:00 +21°C° 0 mm 1 mps 622 mmHg 43%
    06:00 +22°C° 0 mm 1 mps 622 mmHg 46%
    07:00 +24°C° 0 mm 1 mps 623 mmHg 39%
    08:00 +26°C° 0 mm 1 mps 624 mmHg 32%
    09:00 +29°C° 0 mm 1 mps 625 mmHg 26%
    10:00 +29°C° 0 mm 1 mps 625 mmHg 26%
    11:00 +29°C° 0 mm 1 mps 625 mmHg 27%
    12:00 +30°C° 0 mm 2 mps 625 mmHg 28%
    13:00 +29°C° 0 mm 2 mps 625 mmHg 31%
    14:00 +28°C° 0 mm 1 mps 624 mmHg 35%
    15:00 +27°C° 0 mm 1 mps 624 mmHg 39%
    16:00 +26°C° 0 mm 1 mps 624 mmHg 44%
    17:00 +26°C° 0 mm 1 mps 624 mmHg 49%
    18:00 +25°C° 0 mm 1 mps 623 mmHg 53%
    19:00 +23°C° 0.1 mm 1 mps 623 mmHg 59%
    20:00 +21°C° 0.1 mm 1 mps 623 mmHg 64%
    21:00 +19°C° 0.1 mm 1 mps 623 mmHg 69%
    22:00 +19°C° 0 mm 1 mps 623 mmHg 67%
    23:00 +19°C° 0 mm 1 mps 623 mmHg 66%

    30 June, Sunday

    Time Temperature Precipitation Wind Pressure Humidity
    00:00 +19°C° 0 mm 1 mps 623 mmHg 64%
    01:00 +18°C° 0 mm 1 mps 623 mmHg 63%
    02:00 +18°C° 0 mm 1 mps 622 mmHg 61%
    03:00 +18°C° 0 mm 1 mps 622 mmHg 60%
    04:00 +19°C° 0 mm 1 mps 623 mmHg 58%
    05:00 +20°C° 0 mm 1 mps 623 mmHg 56%
    06:00 +21°C° 0 mm 1 mps 624 mmHg 55%
    07:00 +24°C° 0 mm 1 mps 625 mmHg 46%
    08:00 +26°C° 0 mm 1 mps 626 mmHg 37%
    09:00 +29°C° 0 mm 1 mps 627 mmHg 29%
    10:00 +29°C° 0 mm 1 mps 628 mmHg 27%
    11:00 +30°C° 0 mm 1 mps 628 mmHg 25%
    12:00 +31°C° 0 mm 2 mps 628 mmHg 23%
    13:00 +30°C° 0 mm 2 mps 627 mmHg 27%
    14:00 +29°C° 0 mm 2 mps 627 mmHg 31%
    15:00 +29°C° 0 mm 2 mps 626 mmHg 35%
    16:00 +27°C° 0.1 mm 1 mps 625 mmHg 45%
    17:00 +25°C° 0.1 mm 1 mps 625 mmHg 55%
    18:00 +23°C° 0.1 mm 1 mps 624 mmHg 65%
    19:00 +22°C° 0 mm 1 mps 624 mmHg 62%
    20:00 +20°C° 0 mm 1 mps 624 mmHg 59%
    21:00 +18°C° 0 mm 2 mps 623 mmHg 57%
    22:00 +18°C° 0 mm 2 mps 623 mmHg 54%
    23:00 +19°C° 0 mm 1 mps 623 mmHg 51%

    1 July, Monday

    Time Temperature Precipitation Wind Pressure Humidity
    00:00 +19°C° 0 mm 1 mps 623 mmHg 48%
    01:00 +18°C° 0 mm 1 mps 623 mmHg 46%
    02:00 +18°C° 0 mm 1 mps 623 mmHg 44%
    03:00 +18°C° 0 mm 1 mps 623 mmHg 42%
    04:00 +19°C° 0 mm 1 mps 623 mmHg 45%
    05:00 +20°C° 0 mm 1 mps 624 mmHg 48%
    06:00 +21°C° 0 mm 1 mps 624 mmHg 52%
    07:00 +23°C° 0 mm 1 mps 625 mmHg 47%
    08:00 +25°C° 0 mm 1 mps 626 mmHg 42%
    09:00 +27°C° 0 mm 1 mps 626 mmHg 37%
    10:00 +28°C° 0 mm 2 mps 626 mmHg 36%
    11:00 +28°C° 0 mm 2 mps 627 mmHg 36%
    12:00 +29°C° 0 mm 2 mps 627 mmHg 35%
    13:00 +26°C° 2 mm 3 mps 625 mmHg 47%
    14:00 +24°C° 2 mm 3 mps 624 mmHg 59%
    15:00 +20°C° 2 mm 3 mps 622 mmHg 70%
    16:00 +19°C° 3.5 mm 3 mps 622 mmHg 75%
    17:00 +17°C° 3.5 mm 2 mps 621 mmHg 80%
    18:00 +16°C° 3.5 mm 2 mps 621 mmHg 85%
    19:00 +16°C° 0.2 mm 2 mps 621 mmHg 82%
    20:00 +15°C° 0.2 mm 1 mps 621 mmHg 80%
    21:00 +15°C° 0.2 mm 1 mps 622 mmHg 78%
    22:00 +15°C° 0.1 mm 1 mps 621 mmHg 79%
    23:00 +14°C° 0.1 mm 1 mps 621 mmHg 79%

    2 July, Tuesday

    Time Temperature Precipitation Wind Pressure Humidity
    00:00 +14°C° 0.1 mm 1 mps 621 mmHg 80%
    01:00 +14°C° 0 mm 1 mps 621 mmHg 81%
    02:00 +14°C° 0 mm 1 mps 620 mmHg 82%
    03:00 +14°C° 0 mm 1 mps 620 mmHg 82%
    04:00 +15°C° 0 mm 1 mps 621 mmHg 82%
    05:00 +16°C° 0 mm 1 mps 621 mmHg 81%
    06:00 +15°C° 0 mm 0 mps 622 mmHg 81%
    07:00 +19°C° 0 mm 1 mps 622 mmHg 71%
    08:00 +21°C° 0 mm 1 mps 623 mmHg 62%
    09:00 +23°C° 0 mm 1 mps 624 mmHg 53%
    10:00 +23°C° 0.2 mm 2 mps 624 mmHg 52%
    11:00 +24°C° 0.2 mm 2 mps 624 mmHg 50%
    12:00 +24°C° 0.2 mm 2 mps 624 mmHg 49%
    13:00 +24°C° 0.7 mm 2 mps 624 mmHg 50%
    14:00 +24°C° 0.7 mm 2 mps 623 mmHg 50%
    15:00 +24°C° 0.7 mm 2 mps 623 mmHg 51%
    16:00 +23°C° 0.5 mm 2 mps 622 mmHg 57%
    17:00 +22°C° 0.5 mm 1 mps 622 mmHg 64%
    18:00 +21°C° 0.5 mm 1 mps 621 mmHg 70%
    19:00 +19°C° 0.4 mm 1 mps 621 mmHg 76%
    20:00 +16°C° 0.4 mm 1 mps 621 mmHg 81%
    21:00 +13°C° 0.4 mm 0 mps 620 mmHg 87%
    22:00 +13°C° 0.2 mm 0 mps 620 mmHg 86%
    23:00 +14°C° 0.2 mm 1 mps 620 mmHg 86%
    Show more